sat.trackr.live / text

‹ back to catalog

STARLINK-31368

NORAD 58970 · 2024-031F

PAYLOAD ACTIVE UNKNOWN

§ Identity

Operator
Country
US
Launch date
2024-02-15
Launch site
AFWTR
Launch vehicle
Mass (kg)
RCS (m²)

Purposes: comms

External: N2YO · Heavens-Above · Gunter

§ Orbital elements

Epoch: 2026-05-25T03:38:34.368288Z

Period
94.10 min
Inclination
53.1616°
Eccentricity
0.0001065
Mean motion
15.30208991 rev/d
Perigee alt
474.5 km
Apogee alt
475.9 km
Semi-major
6,853.3 km
B*
2.1540e-4
RAAN
301.2803°
Arg perigee
74.3361°
Mean anomaly
285.7757°
Rev number
12,824

§ Raw data

STARLINK-313681 58970U 24031F   26145.15178667  .00006028  00000+0  21540-3 0  99982 58970  53.1616 301.2803 0001065  74.3361 285.7757 15.30208991128242

JSON: /api/v1/satellites/58970 · /tle

For live sub-satellite position, see the globe view (requires WebGL).

§ Visibility from observer

Set your observer location to see the next 7 days of passes ≥ 10°. The values pass through the URL so the page stays shareable.

No JS? Fill the form by hand. The geolocation button needs JavaScript.